Location: Fotscher
(47.2000°N, 11.2167°E)
Time: 01:00:55
(UTC+00:00)

Daily predictions for brighter satellites

Satellite Brightness Start Highest point End
(mag) Time Altitude Azimuth Time Altitude Azimuth Time Altitude Azimuth
USA 267 3.9 01:43:49 10° NE 01:48:35 50° ENE 01:48:35 50° ENE
Resurs 1-4 Rocket 4.4 01:56:15 10° N 01:57:29 16° N 01:57:29 16° N
CENTAUR R/B 4.0 01:55:29 10° NW 02:03:00 47° NE 02:11:24 10° ESE
Cosmos 2360 Rocket 4.4 02:10:59 10° NNW 02:22:23 - SE 02:12:08 16° NNW
ADEOS II 3.9 02:15:24 10° N 02:17:29 23° N 02:17:29 23° N
IDEFIX/ARIANE 42P 3.8 02:16:41 10° NNE 02:19:41 36° NNE 02:19:41 36° NNE
USA 234 3.3 02:18:38 10° SE 02:24:09 67° SE 02:24:09 67° SE
ADEOS Rocket 4.5 02:30:08 21° NNW 02:30:08 21° NNW 02:31:54 10° NNW
CZ-4C R/B 4.4 02:25:01 12° SE 02:26:42 14° ESE 02:29:30 10° ENE
Cosmos 1553 Rocket 4.0 02:32:42 77° NNE 02:32:42 77° NNE 02:38:30 10° N
Cosmos 1417 Rocket 4.5 02:35:32 78° ESE 02:35:38 78° E 02:42:00 10° N
Lacrosse 5 2.8 02:40:09 44° E 02:40:09 44° E 02:43:42 10° ESE
Cosmos 2082 Rocket 3.9 02:42:36 21° NNW 02:42:36 21° NNW 02:45:44 10° N
MSX 3.9 02:39:04 10° NNE 02:44:10 71° N 02:44:10 71° N
Cosmos 2333 Rocket 3.2 02:39:37 10° NNW 02:45:11 46° NE 02:50:43 10° SE
Cosmos 2221 3.9 02:53:27 34° NNE 02:53:27 34° NNE 02:55:56 10° N
Cosmos 2219 Rocket 3.0 02:54:39 10° NNW 03:00:11 50° ENE 03:05:41 10° SE
CZ-2C R/B 2.7 02:56:51 10° NNE 03:01:32 59° E 03:02:02 55° SE
Cosmos 1606 3.3 03:12:57 56° ENE 03:12:57 56° ENE 03:16:27 10° NNE
Sich 1 4.1 03:08:22 10° N 03:12:39 45° ENE 03:16:51 10° SSE
GEOS 3 Rocket 4.5 03:08:37 10° NNE 03:13:26 35° NW 03:13:38 35° NW
USA 238 DEB 3.7 03:07:13 10° NW 03:14:29 83° SW 03:22:03 10° SSE
USA 238 3.7 03:07:19 10° NW 03:14:35 84° SW 03:22:10 10° SE
COSMOS 2428 3.3 03:10:55 10° NNW 03:16:34 57° ENE 03:22:11 10° SE
ATLAS 3B R/B 4.2 03:11:42 10° NNW 03:17:51 33° NNE 03:24:12 10° E
ATLAS 5 CENTAUR R/B 3.2 03:19:18 20° SSE 03:20:52 25° ESE 03:24:25 10° ENE
S3M 3.9 03:21:13 53° WSW 03:22:18 61° WNW 03:28:27 10° N
SeaSat 1 4.1 03:18:44 10° ESE 03:23:07 33° NE 03:27:31 10° NNW
ARIANE 5 R/B 3.4 03:19:41 10° N 03:23:22 33° NW 03:23:22 33° NW
Cosmos 1745 Rocket 4.1 03:19:30 10° NNW 03:25:34 51° W 03:26:32 47° WSW
Helios 1B 4.4 03:25:10 23° SSE 03:27:53 86° WSW 03:32:15 10° NNW
CZ-4C R/B 3.2 03:30:56 66° NE 03:30:56 66° NE 03:34:13 10° N
USA 267 3.6 03:26:57 10° NE 03:33:15 53° NNW 03:35:57 33° WNW
FENGYUN 3A 3.9 03:28:51 10° NNE 03:34:18 68° ESE 03:39:42 10° S
Cosmos 2322 3.6 03:31:30 10° NNW 03:37:12 74° WSW 03:42:50 10° SSE
Cosmos 1709 Rocket 3.9 03:31:05 10° NNW 03:37:26 70° W 03:43:45 10° S
H-2A R/B 2.4 03:37:39 10° SSE 03:41:49 63° ENE 03:45:55 10° N
Cosmos 1151 Rocket 4.4 03:38:37 10° SSE 03:42:36 38° E 03:46:36 10° NNE
NOSS 3-2 (A) 4.1 03:35:45 10° NW 03:43:07 53° WSW 03:51:20 10° SSE
SWAS 4.4 03:40:46 10° NNW 03:45:08 89° WSW 03:49:27 10° SSE
COSMOS 2487 2.9 03:50:12 45° NW 03:50:12 45° NW 03:53:02 10° N
Cosmos 1833 4.4 03:48:29 37° WSW 03:50:17 50° WNW 03:55:47 10° NNE
Cosmos 2344 3.6 03:46:42 31° WSW 03:50:30 63° NW 03:58:36 10° NE
Cosmos 1633 Rocket 3.7 03:46:28 10° N 03:50:49 57° ENE 03:55:07 10° SSE
Geosat 4.1 03:48:53 10° NNE 03:53:56 78° ESE 03:58:04 15° SSW
CENTAUR R/B 3.2 03:46:12 10° NW 03:54:15 65° WSW 04:03:01 10° SSE
Cosmos 2251 Rocket 3.6 03:53:53 32° SW 03:56:11 56° WNW 04:01:30 10° NNE
Cosmos 614 Rocket 3.9 03:54:14 22° SSW 03:57:41 78° WNW 04:02:56 10° NNE
Meteor 1-20 Rocket 4.2 03:53:06 10° NNW 03:58:50 86° W 04:04:38 10° S
Cosmos 2360 Rocket 4.2 04:04:23 11° SSW 04:04:23 11° SSW 04:04:44 10° SSW
IDEFIX/ARIANE 42P 4.3 03:57:47 10° NNW 04:00:30 16° NW 04:00:30 16° NW
ISS -3.8 04:00:41 48° WNW 04:01:32 87° NNE 04:04:53 10° ESE
Cosmos 1933 3.2 03:58:06 13° S 04:01:43 84° W 04:05:47 10° N
ALOS 2.2 03:58:06 10° N 04:02:46 70° WNW 04:07:02 12° SSW
Meteor 2-17 Rocket 4.5 03:56:55 10° NNW 04:02:46 52° W 04:08:35 10° SSW
CZ-2C R/B 4.1 04:01:43 10° NNW 04:04:15 23° NW 04:04:15 23° NW
Cosmos 2237 Rocket 3.0 04:02:21 10° NNW 04:07:57 54° ENE 04:13:29 10° SE
USA 234 4.0 04:03:10 10° S 04:08:44 29° SW 04:11:34 22° W
Meteor 1-31 Rocket 3.2 04:06:43 10° NNE 04:10:34 61° E 04:14:21 10° S
Iridium 51 3.9 04:07:39 10° N 04:11:27 83° W 04:14:58 10° S
Cosmos 407 Rocket 3.5 04:07:33 10° SSW 04:12:44 84° ESE 04:17:53 10° NNE
CZ-4C R/B 2.0 04:10:13 18° SW 04:13:59 89° NW 04:20:01 10° NE
PSLV R/B 4.2 04:11:16 10° N 04:15:18 37° WNW 04:17:21 23° WSW
USA 276 2.2 04:16:02 35° W 04:17:11 66° NNW 04:20:22 10° ENE
Lacrosse 5 2.7 04:19:24 22° W 04:21:19 29° SW 04:25:37 10° S
NOSS 3-4 (A) 3.4 04:16:30 12° SW 04:22:03 90° SE 04:28:24 10° NE
NOSS 3-4 (C) 3.4 04:16:34 11° SW 04:22:09 89° SE 04:28:30 10° NE
Cosmos 192 4.5 04:19:07 10° NNW 04:23:55 51° WSW 04:28:42 10° S
Cosmos 1190 Rocket 4.1 04:19:04 10° SSW 04:24:23 82° ESE 04:29:43 10° NNE
Cosmos 1328 Rocket 3.5 04:20:22 10° S 04:24:40 88° E 04:29:01 10° N
NOSS 3-2 (C) 4.3 04:17:50 10° NW 04:25:06 48° WSW 04:33:11 10° S
Cosmos 1515 Rocket 4.4 04:22:39 10° S 04:26:52 54° E 04:31:09 10° NNE
Cosmos 2227 Rocket 3.9 04:22:16 10° S 04:27:23 36° ESE 04:32:31 10° NE
SJ-12 3.9 04:25:03 10° NNE 04:29:08 84° ESE 04:33:11 10° SSW
Cosmos 2333 Rocket 2.8 04:24:12 10° NW 04:29:18 33° WSW 04:34:22 10° SSW
SL-16 R/B 3.9 04:25:39 10° NNW 04:30:50 34° NE 04:35:57 10° ESE
Cosmos 1484 Rocket 3.3 04:28:54 10° N 04:32:18 35° WNW 04:35:27 12° SW
Cosmos 1437 Rocket 2.8 04:30:20 10° SSW 04:34:22 65° WNW 04:38:22 10° N
Cosmos 1470 Rocket 3.5 04:31:12 10° N 04:35:34 86° W 04:39:53 10° S
CZ-4B R/B 3.8 04:31:41 10° NNE 04:36:10 60° E 04:40:36 10° S
ATLAS 2AS CENTAUR R/B 3.2 04:29:25 10° SSW 04:37:20 81° SE 04:45:09 10° NE
Cosmos 1689 Rocket 4.3 04:35:19 10° SE 04:37:47 27° ENE 04:40:17 10° N
CZ-2C R/B 3.7 04:36:00 10° NNW 04:39:20 19° WNW 04:41:25 15° W
CZ-4B R/B 1.0 04:37:20 10° S 04:40:24 70° WSW 04:43:27 10° NNW
Cosmos 2327 Rocket 4.4 04:34:23 10° N 04:40:32 88° W 04:46:37 10° S
COSMO-SKYMED 1 2.5 04:37:03 10° S 04:41:21 64° W 04:45:41 10° NNW
deb Chang Zheng 4 4.3 04:37:33 10° NNE 04:41:49 58° ESE 04:46:03 10° S
Envisat 4.0 04:37:01 10° NNE 04:41:59 50° E 04:46:54 10° S
Cosmos 2297 Rocket 2.9 04:36:54 10° S 04:42:26 58° ESE 04:47:59 10° NNE
Cosmos 2219 Rocket 3.0 04:39:03 10° NW 04:43:52 29° WSW 04:48:39 10° SSW
Cosmos 1782 2.9 04:40:27 10° SSW 04:44:18 53° WNW 04:48:12 10° N
NOSS 7 (H) 4.5 04:42:54 10° SSW 04:46:21 70° SE 04:49:17 10° NE
Sich 1 4.4 04:46:52 10° NW 04:49:58 19° W 04:53:02 10° SW
Cosmos 1140 Rocket 3.6 04:45:05 10° SW 04:50:12 57° WNW 04:55:19 10° NNE
Cosmos 1500 3.1 04:48:49 10° NNW 04:52:35 67° W 04:56:22 10° S
Cosmos 1980 3.7 04:47:14 10° NNW 04:52:52 69° WSW 04:58:29 10° SSE
Meteor 1-26 Rocket 4.4 04:47:33 10° SSW 04:53:10 55° WNW 04:59:00 10° N
ERS-2 2.6 04:51:09 10° SSE 04:54:44 64° ENE 04:58:22 10° N
Cosmos 1933 Rocket 3.5 04:51:31 10° NNW 04:56:00 79° W 05:00:26 10° S
Cosmos 2074 Rocket 4.3 04:52:18 10° NNW 04:58:07 44° W 05:03:56 10° SSW
COSMOS 2428 3.6 04:55:51 10° NW 05:00:27 26° WSW 05:05:03 10° SSW
SeaSat 1 2.8 04:55:50 10° S 05:00:31 44° WSW 05:05:14 10° NW
MOS 1 Rocket 3.7 04:56:30 10° SSW 05:00:37 38° W 05:04:59 10° NNW
Cosmos 2228 Rocket 4.0 04:56:43 10° S 05:01:11 57° E 05:05:40 10° NNE
BREEZE M DEB (TANK) 2.9 04:59:39 10° WNW 05:02:37 70° SSW 05:11:34 10° ESE
BREEZE-M DEB (TANK) 2.6 05:01:01 10° W 05:04:55 53° N 05:07:08 10° E
YAOGAN 6 2.6 05:01:39 10° NNE 05:05:11 84° ESE 05:08:39 10° S
ATLAS 5 CENTAUR R/B 2.0 05:01:21 10° WSW 05:05:11 41° NW 05:09:34 10° NNE
Cosmos 2154 Rocket 4.1 04:59:35 10° NNW 05:05:41 58° W 05:11:49 10° S
ADEOS 4.0 05:03:43 10° N 05:08:35 40° WNW 05:13:25 10° SW
ATLAS 3B R/B 2.9 05:02:18 10° NW 05:09:18 85° SW 05:16:37 10° SE
Okean O Rocket 4.5 05:06:46 10° NE 05:10:23 24° E 05:13:59 10° SSE
